foto1
foto1
foto1
foto1
foto1

TAF LFBZ

TAF LFBZ 171700Z 1718/1818 01010KT 9999 SCT040 BECMG 1723/1801 07008KT PROB30 TEMPO 1810/1818 SHRA SCT050TCU

Accès Membres

Bienvenue sur le site de l'aéroclub Dassault Bréguet Biarritz.

L'aéroclub Dassault Breguet Biarritz est installé sur l'aéroport de Biarritz-Parme (LFBZ). Il a pour objectif de permettre à ses membres de découvrir le vol à moteur.

Vous trouverez sur ce site toutes les informations afin de découvrir notre activité. 

Les membres pourront se connecter pour accéder à certains éléments permettant de préparer un vol.

Bonne visite.

Plan d'accès:

 Logo Aéroclub

Réserver un avion

Pour réserver un avion cliquer sur le logo Openflyers

logo openflyers